Olathe, KS

7:06 PM CDT on July 21, 2017 (GMT -0500)
Johnson County Executive

Weather History for KOJC - April, 2012

Change the Weather History Date:

Friday, April 13, 2012

  Actual Average Record
Temperature  
Mean Temperature 64 °F 54 °F  
Max Temperature 74 °F 65 °F 90 °F (2006)
Min Temperature 53 °F 44 °F 20 °F (1950)
Degree Days  
Heating Degree Days 1 11  
Month to date heating degree days 102 169  
Since 1 July heating degree days 3707 4686  
Cooling Degree Days 0 1  
Month to date cooling degree days 18 5  
Year to date cooling degree days 60 6  
Growing Degree Days 13 (Base 50)    
Moisture  
Dew Point 55 °F    
Average Humidity 79    
Maximum Humidity 93    
Minimum Humidity 64    
Precipitation  
Precipitation 0.07 in 0.13 in 2.26 in (1987)
Month to date precipitation 0.18 1.37  
Year to date precipitation 4.95 6.69  
Sea Level Pressure  
Sea Level Pressure 29.84 in    
Wind  
Wind Speed 12 mph (SSE)    
Max Wind Speed 21 mph    
Max Gust Speed 33 mph    
Visibility 9 miles    
Events Rain , Thunderstorm    
T = Trace of Precipitation, MM = Missing Value Source: NWS Daily Summary

Daily Weather History Graph

Daily Weather History Graph

Search for Another Location

Airport or City:

Trip Planner

Search our weather history database for the weather conditions in past years. The results will help you decide how hot, cold, wet, or windy it might be!

Date:

Astronomy

Apr. 13, 2012 Rise Set
Actual Time 6:44 AM CDT 7:54 PM CDT
Civil Twilight 6:17 AM CDT 8:22 PM CDT
Nautical Twilight 5:44 AM CDT 8:54 PM CDT
Astronomical Twilight 5:10 AM CDT 9:29 PM CDT
Moon 2:25 AM CDT (4/13) 12:48 PM CDT (4/13)
Length of Visible Light 14h 04m
Length of Day
13h 09m
Waning Gibbous, 47% of the Moon is Illuminated
Apr 13
Waning Gibbous
Apr 21
New
Apr 29
First Quarter
May 5
Full
May 12
Last Quarter

Hourly Weather History & Observations

Time (CDT) Temp. Dew Point Humidity Pressure Visibility Wind Dir Wind Speed Gust Speed Precip Events Conditions
12:53 AM 53.1 °F 43.0 °F 69% 29.91 in 9.0 mi SSE 18.4 mph 23.0 mph 0.01 in Rain , Thunderstorm Light Thunderstorms and Rain
1:19 AM 53.6 °F 42.8 °F 67% 29.90 in 10.0 mi SE 15.0 mph - 0.00 in   Overcast
1:53 AM 54.0 °F 43.0 °F 66% 29.89 in 10.0 mi SE 13.8 mph 21.9 mph 0.00 in   Mostly Cloudy
2:53 AM 53.1 °F 43.0 °F 69% 29.88 in 10.0 mi SSE 13.8 mph - 0.01 in   Overcast
3:53 AM 53.1 °F 44.1 °F 71% 29.85 in 10.0 mi SSE 12.7 mph - N/A   Mostly Cloudy
4:49 AM 55.4 °F 46.4 °F 72% 29.80 in 10.0 mi South 18.4 mph - N/A   Overcast
4:53 AM 54.0 °F 46.9 °F 77% 29.80 in 7.0 mi SSE 16.1 mph - 0.02 in Rain Light Rain
5:53 AM 55.0 °F 50.0 °F 83% 29.81 in 10.0 mi South 17.3 mph - 0.01 in Rain Light Rain
6:11 AM 55.4 °F 50.0 °F 82% 29.82 in 10.0 mi South 16.1 mph - 0.00 in Thunderstorm Overcast
6:53 AM 54.0 °F 51.1 °F 90% 29.82 in 10.0 mi South 12.7 mph - 0.03 in   Overcast
7:53 AM 55.9 °F 53.1 °F 90% 29.83 in 9.0 mi SSE 9.2 mph - N/A   Overcast
8:53 AM 55.9 °F 53.1 °F 90% 29.84 in 8.0 mi SSE 10.4 mph - N/A   Overcast
9:53 AM 57.0 °F 53.1 °F 87% 29.86 in 8.0 mi SSE 11.5 mph - N/A   Overcast
10:53 AM 57.9 °F 54.0 °F 87% 29.86 in 9.0 mi SSE 12.7 mph - N/A   Overcast
11:53 AM 61.0 °F 57.0 °F 87% 29.87 in 9.0 mi South 13.8 mph - N/A   Overcast
12:53 PM 63.0 °F 57.9 °F 84% 29.86 in 9.0 mi SSE 15.0 mph - N/A   Overcast
1:12 PM 64.4 °F 59.0 °F 83% 29.86 in 9.0 mi SSE 12.7 mph - N/A   Overcast
1:53 PM 69.1 °F 61.0 °F 75% 29.85 in 9.0 mi South 9.2 mph - N/A   Overcast
2:21 PM 69.8 °F 60.8 °F 73% 29.85 in 10.0 mi South 15.0 mph - N/A   Mostly Cloudy
2:44 PM 69.8 °F 60.8 °F 73% 29.85 in 10.0 mi South 10.4 mph 20.7 mph N/A   Mostly Cloudy
2:53 PM 71.1 °F 62.1 °F 73% 29.83 in 10.0 mi SSE 9.2 mph - N/A   Mostly Cloudy
3:03 PM 71.6 °F 60.8 °F 69% 29.84 in 10.0 mi SSE 12.7 mph 17.3 mph N/A   Mostly Cloudy
3:53 PM 72.0 °F 61.0 °F 68% 29.82 in 10.0 mi South 16.1 mph - N/A   Partly Cloudy
4:53 PM 73.0 °F 60.1 °F 64% 29.80 in 10.0 mi SSE 15.0 mph - N/A   Clear
5:53 PM 73.0 °F 60.1 °F 64% 29.80 in 10.0 mi SSE 17.3 mph 23.0 mph N/A   Clear
6:53 PM 70.0 °F 62.1 °F 76% 29.80 in 10.0 mi SE 9.2 mph - N/A   Clear
7:53 PM 66.9 °F 62.1 °F 84% 29.80 in 8.0 mi SSE 12.7 mph - N/A   Clear
8:53 PM 66.0 °F 62.1 °F 87% 29.85 in 8.0 mi South 10.4 mph - N/A   Scattered Clouds
9:04 PM 66.2 °F 62.6 °F 88% 29.87 in 9.0 mi South 12.7 mph - N/A   Mostly Cloudy
9:53 PM 66.0 °F 61.0 °F 84% 29.85 in 10.0 mi South 10.4 mph - N/A   Mostly Cloudy
10:03 PM 64.4 °F 60.8 °F 88% 29.85 in 10.0 mi South 5.8 mph - N/A   Scattered Clouds
10:53 PM 63.0 °F 60.1 °F 90% 29.84 in 9.0 mi SSE 10.4 mph - N/A   Clear
11:53 PM 62.1 °F 59.0 °F 90% 29.86 in 10.0 mi South 12.7 mph - N/A   Mostly Cloudy